Regional Weather Roundup
Issued by NWS

Home | Current Version | Previous Version | Graphics & Text | Print | Product List | Glossary On
Versions: 1 2 3 4 5 6 7 8 9 10 11 12 13 14 15 16 17 18 19 20 21 22 23 24 25 26 27 28 29 30 31 32 33 34 35 36 37 38 39 40 41 42 43 44 45 46 47 48 49 50
000
ASUS43 KIND 171259
RWRIN

WEATHER ROUNDUP FOR INDIANA
NATIONAL WEATHER SERVICE INDIANAPOLIS IN
900 AM EDT THU APR 17 2014

NOTE: "FAIR" INDICATES FEW OR NO CLOUDS BELOW 12,000 FEET WITH NO
SIGNIFICANT WEATHER AND/OR OBSTRUCTIONS TO VISIBILITY.

* - STATION DOES NOT REPORT WEATHER SUCH AS PRECIPITATION OR FOG.

+ - STATION NOT QUALITY CONTROLLED BY THE NATIONAL WEATHER SERVICE.
    USE DATA WITH CAUTION...ESPECIALLY DEWPOINT AND RELATIVE
    HUMIDITY OBSERVATIONS.

INZ001>003-010>013-019-020-171400-
NORTHWEST INDIANA

CITY           SKY/WX    TMP DP  RH WIND       PRES   REMARKS
GARY /AIRPORT/ PTSUNNY   43  27  52 S17       30.18R
MONTICELLO +   SUNNY     42  28  59 SE6       30.22S
VALPARAISO     MOSUNNY   42  26  53 S13       30.21R

$$

LMZ046-743>745-171400-
SOUTHERN LAKE MICHIGAN

STATION/POSITION TIME  TEMP WIND        PRES
                       AIR  DIR/SP/G
                 (UTC) (F)  (DEG/KT/KT) (MB)
MICHIGAN CITY    1200   41  130/ 16/ 21   N/A

$$

INZ004-005-014>016-021>024-171400-
NORTH CENTRAL INDIANA

CITY           SKY/WX    TMP DP  RH WIND       PRES   REMARKS
ELKHART        SUNNY     41  25  52 SE10G21   30.24S
GOSHEN         SUNNY     42  27  55 SE12      30.25R
SOUTH BEND     MOSUNNY   44  25  47 S10       30.23R

$$

INZ006>009-017-018-025>027-171400-
NORTHEAST INDIANA

CITY           SKY/WX    TMP DP  RH WIND       PRES   REMARKS
ANGOLA *+      SUNNY     37  25  60 SE8       30.27S
FORT WAYNE     PTSUNNY   40  28  62 S8        30.28S

$$

INZ028-029-035-036-043>045-051>053-171400-
WEST CENTRAL INDIANA

CITY           SKY/WX    TMP DP  RH WIND       PRES   REMARKS
GREENCASTLE +  SUNNY     45  30  57 S8        30.26S
LAFAYETTE      MOSUNNY   45  26  47 S8G17     30.24R
TERRE HAUTE    SUNNY     47  30  51 S7        30.26R

$$

INZ030>032-037>040-046>048-054>057-064-065-171400-
CENTRAL INDIANA

CITY           SKY/WX    TMP DP  RH WIND       PRES   REMARKS
ANDERSON       SUNNY     45  27  49 SE17      30.29
COLUMBUS       MOSUNNY   45  30  57 MISG      30.30R
INDIANAPOLIS   PTSUNNY   43  26  51 S8        30.27R
-EAGLE CREEK   SUNNY     44  25  47 S7        30.27R
KOKOMO *+      SUNNY     43  28  56 S14       30.25S
MT COMFORT *+  MOSUNNY   45  30  57 S13G18    30.28R
SHELBYVILLE    SUNNY     48  29  47 S16       30.29R

$$

INZ033-034-041-042-049-050-058-059-171400-
EAST CENTRAL INDIANA

CITY           SKY/WX    TMP DP  RH WIND       PRES   REMARKS
MUNCIE         SUNNY     45  25  45 S15       30.28R

$$

INZ060-061-067>069-081>083-085>088-171400-
SOUTHWEST INDIANA

CITY           SKY/WX    TMP DP  RH WIND       PRES   REMARKS
EVANSVILLE     SUNNY     50  34  54 S9        30.31R
HUNTINGBURG *+ SUNNY     48  34  57 SW13      30.31R

$$

INZ062-063-066-070>080-084-089>092-171400-
SOUTH CENTRAL AND SOUTHEAST INDIANA

CITY           SKY/WX    TMP DP  RH WIND       PRES   REMARKS
BLOOMINGTON    SUNNY     48  29  47 S12       30.28R

$$




USA.gov is the U.S. government's official web portal to all federal, state and local government web resources and services.